DW1449 Weather Reports


Display with metric or nautical units.
time (UTC)temp
F
wind
direction
speed
MPH
gust
MPH
rain 1hr
in
rain 24hr
in
rain mn
in
humidity
%
barometer
mb
20260831000059 57 0.0 0.0 0.00 0.29 0.00 97 1010.1
20260830234604 57 0.0 0.0 0.00 0.29 0.00 97 1009.9
20260830233104 58 0.0 0.0 0.00 0.29 0.00 97 1010.0
20260830231550 58 0.0 0.0 0.00 0.29 0.00 97 1010.0
20260830230059 58 0.0 0.0 0.00 0.29 0.00 97 1010.1
20260830224556 58 0.0 0.0 0.00 0.29 0.00 97 1009.9
20260830223053 58 0.0 0.0 0.00 0.29 0.00 97 1010.0
20260830221550 58 0.0 0.0 0.00 0.29 0.00 97 1010.0
20260830220100 58 0.0 0.0 0.00 0.29 0.00 97 1010.0
20260830214602 59 0.0 0.0 0.00 0.29 0.29 97 1010.0
20260830213054 59 0.0 0.0 0.00 0.29 0.29 97 1009.9
20260830211554 59 0.0 0.0 0.00 0.29 0.29 97 1009.8
20260830210056 60 0.0 0.0 0.00 0.29 0.29 97 1009.7
20260830204550 60 0.0 0.0 0.00 0.29 0.29 97 1009.7
20260830203118 60 0.0 0.0 0.00 0.29 0.29 97 1009.6
20260830201559 60 0.0 0.0 0.00 0.29 0.29 97 1009.5
20260830200053 60 0.0 0.0 0.00 0.29 0.29 97 1009.3
20260830194607 60 0.0 0.0 0.00 0.29 0.29 97 1009.1
20260830193057 60 0.0 0.0 0.00 0.29 0.29 97 1008.7
20260830191559 60 0.0 0.0 0.00 0.29 0.29 97 1008.4
20260830190053 61 0.0 0.0 0.00 0.29 0.29 97 1008.2
20260830184549 61 0.0 0.0 0.00 0.29 0.29 97 1007.9
20260830183107 61 0.0 0.0 0.00 0.29 0.29 97 1007.7
20260830181558 61 0.0 0.0 0.00 0.29 0.29 96 1007.5
20260830180053 63 0.0 0.0 0.00 0.29 0.29 96 1006.8
20260830174551 63 0.0 0.0 0.00 0.29 0.29 96 1006.5
20260830173109 64 0.0 0.0 0.00 0.29 0.29 96 1006.1
20260830171553 64 0.0 0.0 0.00 0.29 0.29 96 1005.6
20260830170100 64 0.0 0.0 0.00 0.29 0.29 96 1005.4
20260830164609 64 0.0 0.0 0.00 0.30 0.29 97 1005.1
20260830163105 64 0.0 0.0 0.00 0.30 0.29 97 1004.9
20260830161557 64 0.0 0.0 0.00 0.29 0.28 98 1004.7
20260830160056 64 0.0 0.0 0.01 0.29 0.28 98 1004.5
20260830154553 64 0.0 0.0 0.01 0.29 0.28 98 1004.3
20260830153104 63 0.0 0.0 0.02 0.29 0.28 97 1004.3
20260830151553 63 0.0 0.0 0.02 0.29 0.28 97 1004.1
20260830150055 64 0.0 0.0 0.02 0.28 0.26 97 1004.3
20260830144601 63 0.0 0.0 0.02 0.28 0.26 97 1004.4
20260830143112 63 0.0 0.0 0.01 0.27 0.25 98 1004.5
20260830141556 63 0.0 0.0 0.01 0.27 0.25 97 1004.3
20260830140104 63 0.0 0.0 0.00 0.25 0.24 97 1004.2
20260830134558 63 0.0 0.0 0.00 0.25 0.24 97 1004.4
20260830133136 63 0.0 0.0 0.00 0.25 0.24 98 1004.3
20260830131612 63 0.0 0.0 0.00 0.25 0.24 97 1004.2
20260830130100 63 0.0 0.0 0.00 0.25 0.24 97 1004.1
20260830124611 64 0.0 0.0 0.00 0.27 0.24 97 1004.0
20260830123058 64 0.0 0.0 0.03 0.27 0.24 97 1004.2
20260830121552 63 0.0 0.0 0.08 0.27 0.24 98 1004.1
20260830120059 63 0.0 0.0 0.08 0.27 0.24 97 1004.2
20260830114609 63 0.0 0.0 0.09 0.27 0.24 97 1004.2
20260830113106 63 0.0 0.0 0.05 0.23 0.20 95 1004.2
20260830111551 64 0.0 0.0 0.00 0.18 0.15 93 1004.3
20260830110050 64 0.0 0.0 0.00 0.18 0.15 92 1004.2
20260830104601 64 0.0 0.0 0.00 0.18 0.14 93 1004.4
20260830103057 64 0.0 0.0 0.00 0.18 0.14 94 1004.4
20260830101558 64 0.0 0.0 0.00 0.18 0.14 96 1004.4
20260830100051 63 0.0 0.0 0.00 0.18 0.14 97 1004.6
20260830094557 62 0.0 0.0 0.00 0.18 0.14 97 1004.6
20260830093052 62 0.0 0.0 0.03 0.18 0.14 97 1004.7
20260830091558 62 0.0 0.0 0.07 0.18 0.14 97 1004.7
20260830090100 62 0.0 0.0 0.07 0.18 0.14 97 1004.9
20260830084603 62 0.0 0.0 0.07 0.18 0.14 97 1005.0
20260830083105 62 0.0 0.0 0.03 0.14 0.11 97 1005.1
20260830081600 62 0.0 0.0 0.00 0.11 0.07 97 1004.9
20260830080055 61 0.0 0.0 0.00 0.11 0.07 97 1005.1
20260830074553 61 0.0 0.0 0.00 0.11 0.07 97 1005.2
20260830073059 61 0.0 0.0 0.01 0.10 0.07 97 1005.4
20260830071558 61 0.0 0.0 0.03 0.10 0.07 97 1005.3
20260830070105 61 0.0 0.0 0.03 0.10 0.07 97 1005.4
20260830064558 61 0.0 0.0 0.03 0.10 0.07 97 1005.3
20260830063101 61 0.0 0.0 0.03 0.08 0.05 96 1005.4
20260830061605 61 0.0 0.0 0.00 0.06 0.03 97 1005.5
20260830060053 61 0.0 0.0 0.00 0.06 0.03 97 1005.5
20260830054558 60 0.0 0.0 0.00 0.06 0.03 97 1005.6
20260830053054 60 0.0 0.0 0.00 0.05 0.02 98 1005.6
20260830051556 59 0.0 0.0 0.00 0.05 0.02 98 1005.8
20260830050057 59 0.0 0.0 0.00 0.05 0.02 98 1005.8
20260830044556 59 0.0 0.0 0.00 0.05 0.02 98 1006.0
20260830043052 58 0.0 0.0 0.00 0.05 0.02 98 1006.2
20260830041554 58 0.0 0.0 0.00 0.05 0.02 97 1006.4
20260830040053 58 0.0 0.0 0.00 0.05 0.02 98 1006.4
20260830034616 58 0.0 0.0 0.00 0.05 0.02 97 1006.7
20260830033056 58 0.0 0.0 0.00 0.05 0.02 97 1007.0
20260830031554 58 0.0 0.0 0.00 0.05 0.02 97 1007.1
20260830024555 58 0.0 0.0 0.02 0.05 0.02 97 1007.5
20260830023101 58 0.0 0.0 0.01 0.04 0.01 97 1007.7
20260830021559 59 0.0 0.0 0.01 0.04 0.01 97 1007.8
20260830020059 58 0.0 0.0 0.00 0.03 0.00 97 1008.0
20260830014612 58 0.0 0.0 0.00 0.03 0.00 97 1008.0
20260830013102 58 0.0 0.0 0.00 0.03 0.00 97 1007.9
20260830011600 58 0.0 0.0 0.00 0.03 0.00 97 1008.1
20260830010105 58 0.0 0.0 0.00 0.03 0.00 97 1008.0
20260830004550 59 0.0 0.0 0.00 0.03 0.00 97 1008.1
20260830003058 59 0.0 0.0 0.00 0.03 0.00 97 1008.3
20260830001552 59 0.0 0.0 0.00 0.03 0.00 96 1008.3